TimeEDT,TemperatureF,Dew PointF,Humidity,Sea Level PressureIn,VisibilityMPH,Wind Direction,Wind SpeedMPH,Gust SpeedMPH,PrecipitationIn,Events,Conditions,WindDirDegrees,DateUTC
12:11 AM,37.4,35.6,93,30.22,1.8,East,3.5,-,N/A,,Overcast,90,2012-03-15 04:11:00
12:26 AM,37.4,35.6,93,30.22,0.8,East,3.5,-,N/A,,Mist,90,2012-03-15 04:26:00
12:33 AM,37.4,35.6,93,30.22,1.0,ESE,4.6,-,N/A,,Mist,110,2012-03-15 04:33:00
12:47 AM,37.4,35.6,93,30.22,0.5,SE,3.5,-,N/A,Fog,Fog,130,2012-03-15 04:47:00
12:54 AM,37.0,36.0,96,30.25,0.8,ESE,3.5,-,N/A,,Mist,120,2012-03-15 04:54:00
1:09 AM,37.4,35.6,93,30.23,0.5,ESE,3.5,-,N/A,Fog,Fog,120,2012-03-15 05:09:00
1:17 AM,35.6,35.6,100,30.23,0.2,Calm,Calm,-,N/A,Fog,Fog,0,2012-03-15 05:17:00
1:24 AM,35.6,35.6,100,30.23,0.5,Calm,Calm,-,N/A,Fog,Fog,0,2012-03-15 05:24:00
1:39 AM,37.4,35.6,93,30.24,0.5,East,3.5,-,N/A,Fog,Fog,100,2012-03-15 05:39:00
1:46 AM,35.6,35.6,100,30.24,0.2,Calm,Calm,-,N/A,Fog,Fog,0,2012-03-15 05:46:00
1:54 AM,36.0,36.0,100,30.26,0.5,SE,3.5,-,N/A,Fog,Fog,130,2012-03-15 05:54:00
2:30 AM,37.4,35.6,93,30.25,1.2,ENE,3.5,-,N/A,,Overcast,70,2012-03-15 06:30:00
2:37 AM,37.4,35.6,93,30.25,3.0,Variable,4.6,-,N/A,,Overcast,0,2012-03-15 06:37:00
2:54 AM,37.0,36.0,96,30.27,5.0,NE,3.5,-,N/A,,Overcast,40,2012-03-15 06:54:00
3:24 AM,37.4,35.6,93,30.26,1.8,North,3.5,-,N/A,,Overcast,350,2012-03-15 07:24:00
3:54 AM,36.0,36.0,100,30.28,1.5,Calm,Calm,-,N/A,,Overcast,0,2012-03-15 07:54:00
4:02 AM,35.6,35.6,100,30.26,3.0,Calm,Calm,-,N/A,,Overcast,0,2012-03-15 08:02:00
4:54 AM,37.0,36.0,96,30.29,6.0,Calm,Calm,-,N/A,,Overcast,0,2012-03-15 08:54:00
5:54 AM,37.0,35.1,93,30.32,10.0,ENE,3.5,-,N/A,,Overcast,70,2012-03-15 09:54:00
6:54 AM,36.0,35.1,97,30.33,10.0,East,4.6,-,N/A,,Overcast,80,2012-03-15 10:54:00
7:54 AM,37.0,35.1,93,30.35,10.0,East,3.5,-,N/A,,Overcast,80,2012-03-15 11:54:00
8:44 AM,37.4,35.6,93,30.32,10.0,Calm,Calm,-,N/A,,Overcast,0,2012-03-15 12:44:00
8:54 AM,39.0,34.0,82,30.35,10.0,NE,4.6,-,N/A,,Overcast,40,2012-03-15 12:54:00
9:54 AM,37.9,35.1,89,30.36,10.0,ENE,4.6,-,N/A,,Overcast,70,2012-03-15 13:54:00
10:31 AM,37.4,35.6,93,30.33,2.5,ENE,4.6,-,N/A,,Overcast,60,2012-03-15 14:31:00
10:38 AM,37.4,35.6,93,30.33,0.5,ENE,5.8,-,N/A,,Overcast,60,2012-03-15 14:38:00
10:54 AM,37.0,36.0,96,30.36,0.5,ENE,5.8,-,N/A,Fog,Fog,70,2012-03-15 14:54:00
11:33 AM,37.4,35.6,93,30.33,1.0,East,3.5,-,N/A,,Overcast,90,2012-03-15 15:33:00
11:43 AM,37.4,35.6,93,30.32,3.0,East,6.9,-,N/A,,Overcast,80,2012-03-15 15:43:00
11:54 AM,37.9,36.0,93,30.36,6.0,NE,4.6,-,N/A,,Overcast,40,2012-03-15 15:54:00
12:32 PM,39.2,33.8,81,30.32,10.0,NE,3.5,-,N/A,,Unknown,50,2012-03-15 16:32:00
12:54 PM,39.0,34.0,82,30.35,10.0,Calm,Calm,-,N/A,,Unknown,0,2012-03-15 16:54:00
1:03 PM,39.2,33.8,81,30.32,10.0,Calm,Calm,-,N/A,,Overcast,0,2012-03-15 17:03:00
1:28 PM,39.2,33.8,81,30.30,10.0,ENE,3.5,-,N/A,,Overcast,60,2012-03-15 17:28:00
1:54 PM,41.0,34.0,76,30.33,10.0,SE,3.5,-,N/A,,Overcast,140,2012-03-15 17:54:00
2:36 PM,42.8,33.8,70,30.29,10.0,Calm,Calm,-,N/A,,Overcast,0,2012-03-15 18:36:00
2:54 PM,42.1,34.0,73,30.32,10.0,SSW,3.5,-,N/A,,Overcast,200,2012-03-15 18:54:00
3:23 PM,42.8,33.8,70,30.27,10.0,Calm,Calm,-,N/A,,Scattered Clouds,0,2012-03-15 19:23:00
3:54 PM,44.1,34.0,68,30.31,10.0,WNW,3.5,-,N/A,,Mostly Cloudy,300,2012-03-15 19:54:00
4:54 PM,45.0,34.0,65,30.30,10.0,South,4.6,-,N/A,,Mostly Cloudy,190,2012-03-15 20:54:00
5:54 PM,46.0,34.0,63,30.30,10.0,SE,3.5,-,N/A,,Overcast,140,2012-03-15 21:54:00
6:54 PM,45.0,33.1,63,30.31,10.0,East,5.8,-,N/A,,Mostly Cloudy,90,2012-03-15 22:54:00
7:54 PM,39.0,33.1,79,30.34,10.0,East,6.9,-,0.00,Rain,Light Rain,90,2012-03-15 23:54:00
8:54 PM,36.0,32.0,86,30.34,10.0,East,5.8,-,0.00,,Clear,90,2012-03-16 00:54:00
9:14 PM,35.6,32.0,87,30.31,10.0,East,6.9,-,N/A,,Mostly Cloudy,100,2012-03-16 01:14:00
9:54 PM,35.1,30.9,85,30.34,10.0,East,5.8,-,N/A,,Overcast,100,2012-03-16 01:54:00
10:54 PM,35.1,30.9,85,30.35,10.0,East,3.5,-,N/A,,Overcast,100,2012-03-16 02:54:00
11:23 PM,35.6,30.2,81,30.31,10.0,East,5.8,-,N/A,,Overcast,90,2012-03-16 03:23:00
11:54 PM,36.0,30.9,82,30.34,10.0,East,4.6,-,N/A,,Overcast,100,2012-03-16 03:54:00